SCOUT A DEB, 2702

Orbit data source: Space-Track

SCOUT A DEB, 2702 is space debris in LEO originally from a launch on Thu, 18 Aug 1966 UTC launched from the Air Force Western Test Range (AFWTR). Debris objects in space refer to the collection of defunct objects orbiting the Earth. Examples of debris include non-operational satellites, rocket bodies, and fragments generated from explosions, collisions, or faulty payload assembly.

Loading next visibility...
Identifier
2702, 1966-076D
Orbit
LEO
Country
Flag of USUS
Related business
Manufacturer
Unknown
Mission
Spacecraft
Bus & Motor
Unknown
Mass
Unknown
Launch date (UTC)
1966-08-18 (59 years ago)
Launch vehicle
Unknown
Launch site
Air Force Western Test Range (AFWTR)
Object type
Payload
Rocket body
Debris
Shape & HBR
Unknown shape, 0.1 m
Radar Cross Section
Small (<0.1 m²)

Expand to show TLE details & history
Last TLE update: 2 days ago

TLE from 2 days ago
0 SCOUT A DEB
1 02702U 66076D   25345.30569933  .00000193  00000-0  34059-3 0  9990
2 02702  88.5582 284.4857 0089685  85.0769  74.2604 13.36521117871232
Epoch: 2025-12-11T07:20Z
TLE epoch observation values (Epoch: 2025-12-11T07:20:12.422Z)
Latitude
19.66349°
Longitude
-86.34231°
Altitude
1,107.079 km
Speed
7.309 km/s
True Right ascension
06h 55m 53s
True Declination
19° 33' 35"
Sunlit
Object was in full shadow at epoch
Visualization orbit readout
Latitude
Unknown
Longitude
Unknown
Altitude
Unknown
Speed
Unknown
Apparent Right ascension
Unknown
Apparent Declination
Unknown
Sunlit
N/A
Visualization observer readout
Local Sidereal Time
05:24:09
Azimuth
Unknown
Elevation
Unknown
Doppler factor
Unknown
Orbital elements
Apogee altitude
1,186.582 km
Perigee altitude
1,052.1 km
Semi-major axis
7,497.478 km
Eccentricity
0.00897
Inclination
88.5582°
RAAN
284.4857°
Arg. of periapsis
85.0769°
True anomaly
75.25255°
Mean anomaly
74.2604°
Eccentric anomaly
74.75618°
Mean motion
3.34326 °/min
Orbital period
107.68 mins
BSTAR
0.00034059
Loading maneuver chart data...
Computing Atmospheric mass density...
Loading historical data...
Loading historical data...
Loading historical data...
Loading historical data...
Loading historical data...
Loading historical data...
Loading historical data...

Documentation

Showing up to 5 results
|